Weather History for Palm Springs, CA

Change the Weather History Date:

Wednesday, July 25, 2012

  Actual Average Record
Temperature  
Mean Temperature 94 °F 93 °F  
Max Temperature 110 °F 108 °F 119 °F (1943)
Min Temperature 78 °F 78 °F 65 °F (1935)
Degree Days  
Heating Degree Days 0 0  
Month to date heating degree days 0 0  
Since 1 June heating degree days 0 0  
Since 1 July heating degree days 0 0  
Cooling Degree Days 29 28  
Month to date cooling degree days 688 680  
Year to date cooling degree days 2328 2086  
Since 1 June cooling degree days 1389 1327  
Growing Degree Days 43 (Base 50)    
Moisture  
Dew Point 33 °F    
Average Humidity 18    
Maximum Humidity 32    
Minimum Humidity 4    
Precipitation  
Precipitation 0.00 in 0.02 in 0.60 in (1936)
Month to date precipitation T 0.15  
Year to date precipitation 0.79 3.09  
Since 1 July precipitation T 0.15  
Snow  
Snow 0.00 in - - ()
Month to date snowfall 0.0  
Year to date snowfall 0.0  
Since 1 July snowfall 0.0  
Snow Depth 0.00 in    
Sea Level Pressure  
Sea Level Pressure 29.78 in    
Wind  
Wind Speed 4 mph (NW)    
Max Wind Speed 21 mph    
Max Gust Speed 28 mph    
Visibility 10 miles    
Events      
T = Trace of Precipitation, MM = Missing Value Source: NWS Daily Summary

Daily Weather History Graph

Daily Weather History Graph

Search for Another Location

Airport:

Trip Planner

Search our weather history database for the weather conditions in past years. The results will help you decide how hot, cold, wet, or windy it might be!

Date:

Astronomy

Jul. 25, 2012 Rise Set
Actual Time 5:53 AM PDT 7:51 PM PDT
Civil Twilight 5:25 AM PDT 8:19 PM PDT
Nautical Twilight 4:51 AM PDT 8:52 PM PDT
Astronomical Twilight 4:15 AM PDT 9:28 PM PDT
Moon 12:39 PM PDT (7/25) 11:45 PM PDT (7/25)
Length of Visible Light 14h 53m
Length of Day
13h 58m
Waxing Crescent, 43% of the Moon is Illuminated
Jul 25
Waxing Crescent
Jul 26
First Quarter
Aug 1
Full
Aug 9
Last Quarter
Aug 17
New

Hourly Weather History & Observations

Time (PDT) Temp. Dew Point Humidity Pressure Visibility Wind Dir Wind Speed Gust Speed Precip Events Conditions
12:53 AM 86.0 °F 43.0 °F 22% 29.77 in 10.0 mi Calm Calm - N/A   Clear
1:53 AM 82.9 °F 44.1 °F 25% 29.77 in 10.0 mi Calm Calm - N/A   Clear
2:53 AM 82.9 °F 44.1 °F 25% 29.77 in 10.0 mi Calm Calm - N/A   Clear
3:53 AM 80.1 °F 46.0 °F 30% 29.78 in 10.0 mi SSW 3.5 mph - N/A   Clear
4:53 AM 81.0 °F 46.0 °F 29% 29.78 in 10.0 mi Calm Calm - N/A   Clear
5:53 AM 78.1 °F 46.9 °F 33% 29.79 in 10.0 mi Calm Calm - N/A   Clear
6:53 AM 82.9 °F 46.9 °F 28% 29.82 in 10.0 mi Calm Calm - N/A   Clear
7:53 AM 86.0 °F 44.1 °F 23% 29.83 in 10.0 mi Calm Calm - N/A   Clear
8:53 AM 91.9 °F 39.0 °F 16% 29.84 in 10.0 mi SSE 4.6 mph - N/A   Clear
9:53 AM 96.1 °F 36.0 °F 12% 29.83 in 10.0 mi South 3.5 mph - N/A   Clear
10:53 AM 100.0 °F 28.0 °F 8% 29.84 in 10.0 mi Calm Calm - N/A   Clear
11:53 AM 102.9 °F 25.0 °F 6% 29.83 in 10.0 mi Calm Calm - N/A   Clear
12:53 PM 104.0 °F 25.0 °F 6% 29.81 in 10.0 mi Calm Calm - N/A   Clear
1:53 PM 108.0 °F 19.9 °F 4% 29.80 in 10.0 mi North 13.8 mph - N/A   Clear
2:53 PM 108.0 °F 21.9 °F 5% 29.77 in 10.0 mi NW 12.7 mph 20.7 mph N/A   Clear
3:53 PM 108.0 °F 21.0 °F 5% 29.75 in 10.0 mi NNW 18.4 mph 21.9 mph N/A   Clear
4:53 PM 107.1 °F 21.0 °F 5% 29.73 in 10.0 mi NW 15.0 mph 21.9 mph N/A   Clear
5:53 PM 106.0 °F 16.0 °F 4% 29.71 in 10.0 mi NNW 18.4 mph 24.2 mph N/A   Clear
6:53 PM 102.9 °F 21.0 °F 5% 29.71 in 10.0 mi NW 17.3 mph - N/A   Clear
7:53 PM 98.1 °F 37.9 °F 12% 29.73 in 10.0 mi NW 17.3 mph 29.9 mph N/A   Clear
8:53 PM 93.9 °F 35.1 °F 13% 29.74 in 10.0 mi NW 20.7 mph - N/A   Clear
9:53 PM 91.0 °F 30.9 °F 12% 29.76 in 10.0 mi NW 17.3 mph 24.2 mph N/A   Clear
10:53 PM 91.0 °F 30.9 °F 12% 29.76 in 10.0 mi NW 11.5 mph - N/A   Clear
11:53 PM 89.1 °F 30.0 °F 12% 29.77 in 10.0 mi WNW 8.1 mph - N/A   Clear